| time (UTC) | temp F | wind direction | speed MPH | gust MPH | rain 1hr in | rain 24hr in | rain mn in | humidity % | barometer mb |
| 20260902025857 | 64 | 141 | 0.0 | 9.0 | 0.00 | 0.00 | 0.00 | 76 | 1008.3 |
| 20260902025355 | 65 | 153 | 0.0 | 13.0 | 0.00 | 0.00 | 0.00 | 76 | 1008.1 |
| 20260902024851 | 65 | 147 | 0.0 | 13.0 | 0.00 | 0.00 | 0.00 | 75 | 1007.9 |
| 20260902024709 | 65 | 144 | 0.0 | 3.0 | 0.00 | 0.00 | 0.00 | 75 | 1007.7 |
| 20260902023848 | 65 | 147 | 0.0 | 3.0 | 0.00 | 0.00 | 0.00 | 75 | 1008.0 |
| 20260902023637 | 65 | 154 | 0.0 | 4.0 | 0.00 | 0.00 | 0.00 | 76 | 1008.0 |
| 20260902022947 | 65 | 151 | 0.0 | 8.0 | 0.00 | 0.00 | 0.00 | 76 | 1007.9 |
| 20260902022922 | 65 | 152 | 1.0 | 7.0 | 0.00 | 0.00 | 0.00 | 75 | 1007.9 |
| 20260902021838 | 65 | 147 | 0.0 | 9.0 | 0.00 | 0.00 | 0.00 | 76 | 1007.9 |
| 20260902021339 | 65 | 128 | 1.0 | 9.0 | 0.00 | 0.00 | 0.00 | 75 | 1007.8 |
| 20260902020838 | 65 | 131 | 0.0 | 7.0 | 0.00 | 0.00 | 0.00 | 75 | 1007.9 |
| 20260902020341 | 65 | 136 | 0.0 | 7.0 | 0.00 | 0.00 | 0.00 | 76 | 1007.9 |
| 20260902015838 | 65 | 155 | 0.0 | 8.0 | 0.00 | 0.00 | 0.00 | 75 | 1008.0 |
| 20260902015338 | 65 | 143 | 1.0 | 8.0 | 0.00 | 0.00 | 0.00 | 75 | 1007.9 |
| 20260902014838 | 65 | 137 | 0.0 | 13.0 | 0.00 | 0.00 | 0.00 | 75 | 1008.0 |
| 20260902014338 | 66 | 132 | 0.0 | 13.0 | 0.00 | 0.00 | 0.00 | 74 | 1008.0 |
| 20260902013838 | 66 | 159 | 1.0 | 8.0 | 0.00 | 0.00 | 0.00 | 74 | 1007.9 |
| 20260902013338 | 66 | 143 | 1.0 | 7.0 | 0.00 | 0.00 | 0.00 | 73 | 1008.0 |
| 20260902012839 | 66 | 149 | 0.0 | 6.0 | 0.00 | 0.00 | 0.00 | 73 | 1007.8 |
| 20260902012338 | 66 | 130 | 0.0 | 7.0 | 0.00 | 0.00 | 0.00 | 72 | 1007.9 |
| 20260902011838 | 67 | 158 | 0.0 | 7.0 | 0.00 | 0.00 | 0.00 | 72 | 1008.0 |
| 20260902011338 | 67 | 143 | 1.0 | 6.0 | 0.00 | 0.00 | 0.00 | 72 | 1007.9 |
| 20260902011127 | 67 | 140 | 0.0 | 6.0 | 0.00 | 0.00 | 0.00 | 72 | 1008.1 |
| 20260902010633 | 67 | 129 | 0.0 | 7.0 | 0.00 | 0.00 | 0.00 | 71 | 1007.9 |
| 20260902010231 | 67 | 130 | 0.0 | 7.0 | 0.00 | 0.00 | 0.00 | 72 | 1007.8 |
| 20260902005338 | 67 | 127 | 0.0 | 6.0 | 0.00 | 0.00 | 0.00 | 72 | 1007.9 |
| 20260902005128 | 67 | 157 | 0.0 | 3.0 | 0.00 | 0.00 | 0.00 | 72 | 1007.9 |
| 20260902004637 | 67 | 143 | 0.0 | 7.0 | 0.00 | 0.00 | 0.00 | 72 | 1007.9 |
| 20260902003837 | 67 | 161 | 0.0 | 11.0 | 0.00 | 0.00 | 0.00 | 72 | 1007.8 |
| 20260902003339 | 67 | 145 | 0.0 | 17.0 | 0.00 | 0.00 | 0.00 | 71 | 1007.8 |
| 20260902002839 | 67 | 132 | 0.0 | 17.0 | 0.00 | 0.00 | 0.00 | 71 | 1007.7 |
| 20260902002338 | 67 | 130 | 0.0 | 7.0 | 0.00 | 0.00 | 0.00 | 71 | 1007.9 |
| 20260902001837 | 67 | 153 | 0.0 | 9.0 | 0.00 | 0.00 | 0.00 | 71 | 1007.6 |
| 20260902001344 | 67 | 154 | 0.0 | 9.0 | 0.00 | 0.00 | 0.00 | 73 | 1007.9 |
| 20260902000838 | 67 | 149 | 0.0 | 8.0 | 0.00 | 0.00 | 0.00 | 72 | 1007.8 |
| 20260902000701 | 67 | 144 | 0.0 | 2.0 | 0.00 | 0.00 | 0.00 | 71 | 1008.1 |
| 20260901235844 | 67 | 165 | 0.0 | 2.0 | 0.00 | 0.00 | 0.00 | 71 | 1008.0 |
| 20260901235635 | 67 | 141 | 1.0 | 11.0 | 0.00 | 0.00 | 0.00 | 71 | 1007.8 |
| 20260901234840 | 66 | 159 | 1.0 | 11.0 | 0.00 | 0.00 | 0.00 | 72 | 1007.7 |
| 20260901234341 | 66 | 122 | 0.0 | 7.0 | 0.00 | 0.00 | 0.00 | 76 | 1007.9 |
| 20260901233844 | 67 | 141 | 0.0 | 6.0 | 0.00 | 0.00 | 0.00 | 73 | 1007.7 |
| 20260901233344 | 67 | 137 | 1.0 | 11.0 | 0.00 | 0.00 | 0.00 | 73 | 1007.8 |
| 20260901232853 | 67 | 158 | 0.0 | 11.0 | 0.00 | 0.00 | 0.00 | 73 | 1007.8 |
| 20260901232349 | 67 | 155 | 0.0 | 8.0 | 0.00 | 0.00 | 0.00 | 73 | 1007.8 |
| 20260901232123 | 67 | 129 | 1.0 | 8.0 | 0.00 | 0.00 | 0.00 | 72 | 1007.9 |
| 20260901231354 | 67 | 145 | 0.0 | 7.0 | 0.00 | 0.00 | 0.00 | 73 | 1008.0 |
| 20260901230854 | 67 | 132 | 0.0 | 9.0 | 0.00 | 0.00 | 0.00 | 73 | 1008.1 |
| 20260901230341 | 67 | 126 | 0.0 | 9.0 | 0.00 | 0.00 | 0.00 | 73 | 1007.8 |
| 20260901225840 | 67 | 142 | 0.0 | 8.0 | 0.00 | 0.00 | 0.00 | 72 | 1008.0 |
| 20260901225340 | 67 | 143 | 1.0 | 8.0 | 0.00 | 0.00 | 0.00 | 73 | 1008.0 |
| 20260901224842 | 67 | 153 | 0.0 | 8.0 | 0.00 | 0.00 | 0.00 | 72 | 1007.9 |
| 20260901224341 | 67 | 143 | 0.0 | 10.0 | 0.00 | 0.00 | 0.00 | 72 | 1008.1 |
| 20260901223841 | 67 | 143 | 2.0 | 10.0 | 0.00 | 0.00 | 0.00 | 72 | 1008.0 |
| 20260901223341 | 67 | 133 | 0.0 | 0.0 | 0.00 | 0.00 | 0.00 | 72 | 1007.7 |
| 20260901222841 | 67 | 150 | 0.0 | 8.0 | 0.00 | 0.00 | 0.00 | 72 | 1008.0 |
| 20260901222340 | 67 | 135 | 0.0 | 8.0 | 0.00 | 0.00 | 0.00 | 72 | 1008.0 |
| 20260901221839 | 67 | 120 | 1.0 | 6.0 | 0.00 | 0.00 | 0.00 | 71 | 1007.8 |
| 20260901221341 | 67 | 133 | 0.0 | 1.0 | 0.00 | 0.00 | 0.00 | 73 | 1007.8 |
| 20260901221123 | 67 | 153 | 0.0 | 0.0 | 0.00 | 0.00 | 0.00 | 73 | 1007.9 |
| 20260901220341 | 67 | 150 | 0.0 | 0.0 | 0.00 | 0.00 | 0.00 | 72 | 1007.8 |
| 20260901215840 | 67 | 128 | 0.0 | 0.0 | 0.00 | 0.00 | 0.00 | 72 | 1008.0 |
| 20260901215340 | 67 | 132 | 0.0 | 0.0 | 0.00 | 0.00 | 0.00 | 72 | 1008.0 |
| 20260901214839 | 67 | 122 | 0.0 | 0.0 | 0.00 | 0.00 | 0.00 | 72 | 1007.8 |
| 20260901214433 | 67 | 123 | 0.0 | 0.0 | 0.00 | 0.00 | 0.00 | 72 | 1007.8 |
| 20260901213340 | 68 | 137 | 0.0 | 7.0 | 0.00 | 0.00 | 0.00 | 71 | 1008.2 |
| 20260901213124 | 68 | 149 | 0.0 | 7.0 | 0.00 | 0.00 | 0.00 | 70 | 1007.8 |
| 20260901212341 | 68 | 152 | 0.0 | 4.0 | 0.00 | 0.00 | 0.00 | 70 | 1008.1 |
| 20260901212152 | 68 | 151 | 0.0 | 3.0 | 0.00 | 0.00 | 0.00 | 69 | 1008.0 |
| 20260901211341 | 68 | 134 | 0.0 | 8.0 | 0.00 | 0.00 | 0.00 | 69 | 1007.8 |
| 20260901210839 | 69 | 124 | 2.0 | 8.0 | 0.00 | 0.00 | 0.00 | 68 | 1008.0 |
| 20260901210341 | 69 | 136 | 0.0 | 4.0 | 0.00 | 0.00 | 0.00 | 68 | 1007.9 |
| 20260901205841 | 69 | 140 | 0.0 | 8.0 | 0.00 | 0.00 | 0.00 | 69 | 1008.2 |
| 20260901205340 | 69 | 150 | 0.0 | 8.0 | 0.00 | 0.00 | 0.00 | 68 | 1007.9 |
| 20260901204841 | 69 | 142 | 0.0 | 8.0 | 0.00 | 0.00 | 0.00 | 69 | 1008.0 |
| 20260901204341 | 68 | 148 | 1.0 | 8.0 | 0.00 | 0.00 | 0.00 | 69 | 1008.2 |
| 20260901203841 | 68 | 126 | 1.0 | 8.0 | 0.00 | 0.00 | 0.00 | 70 | 1008.1 |
| 20260901203341 | 68 | 121 | 0.0 | 6.0 | 0.00 | 0.00 | 0.00 | 69 | 1008.3 |
| 20260901203134 | 68 | 141 | 0.0 | 6.0 | 0.00 | 0.00 | 0.00 | 70 | 1008.2 |
| 20260901202340 | 68 | 152 | 0.0 | 7.0 | 0.00 | 0.00 | 0.00 | 69 | 1008.3 |
| 20260901201840 | 68 | 155 | 1.0 | 8.0 | 0.00 | 0.00 | 0.00 | 69 | 1008.2 |
| 20260901201341 | 68 | 139 | 0.0 | 8.0 | 0.00 | 0.00 | 0.00 | 70 | 1008.3 |
| 20260901200841 | 68 | 128 | 0.0 | 3.0 | 0.00 | 0.00 | 0.00 | 69 | 1008.3 |
| 20260901200341 | 68 | 165 | 0.0 | 4.0 | 0.00 | 0.00 | 0.00 | 70 | 1008.4 |
| 20260901195840 | 67 | 151 | 0.0 | 6.0 | 0.00 | 0.00 | 0.00 | 71 | 1008.4 |
| 20260901195341 | 68 | 162 | 1.0 | 6.0 | 0.00 | 0.00 | 0.00 | 72 | 1008.6 |
| 20260901195148 | 67 | 147 | 0.0 | 6.0 | 0.00 | 0.00 | 0.00 | 73 | 1008.5 |
| 20260901194340 | 67 | 145 | 0.0 | 6.0 | 0.00 | 0.00 | 0.00 | 75 | 1008.2 |
| 20260901194131 | 66 | 142 | 0.0 | 4.0 | 0.00 | 0.00 | 0.00 | 75 | 1008.3 |
| 20260901193630 | 66 | 128 | 0.0 | 4.0 | 0.00 | 0.00 | 0.00 | 74 | 1008.3 |
| 20260901192840 | 66 | 151 | 0.0 | 8.0 | 0.00 | 0.00 | 0.00 | 75 | 1008.5 |
| 20260901192341 | 65 | 129 | 0.0 | 8.0 | 0.00 | 0.00 | 0.00 | 75 | 1008.3 |
| 20260901191840 | 65 | 131 | 0.0 | 2.0 | 0.00 | 0.00 | 0.00 | 75 | 1008.7 |
| 20260901191341 | 65 | 128 | 0.0 | 10.0 | 0.00 | 0.00 | 0.00 | 75 | 1008.4 |
| 20260901190841 | 65 | 144 | 1.0 | 10.0 | 0.00 | 0.00 | 0.00 | 77 | 1008.6 |
| 20260901190340 | 65 | 153 | 0.0 | 4.0 | 0.00 | 0.00 | 0.00 | 76 | 1008.5 |
| 20260901185842 | 64 | 144 | 1.0 | 4.0 | 0.00 | 0.00 | 0.00 | 78 | 1008.6 |
| 20260901185641 | 64 | 146 | 0.0 | 1.0 | 0.00 | 0.00 | 0.00 | 79 | 1008.8 |
| 20260901184840 | 64 | 146 | 0.0 | 3.0 | 0.00 | 0.00 | 0.00 | 80 | 1008.6 |
| 20260901184341 | 63 | 147 | 0.0 | 11.0 | 0.00 | 0.00 | 0.00 | 81 | 1008.7 |
| 20260901183841 | 63 | 147 | 1.0 | 11.0 | 0.00 | 0.00 | 0.00 | 81 | 1008.9 |
| 20260901183345 | 63 | 147 | 0.0 | 7.0 | 0.00 | 0.00 | 0.00 | 81 | 1008.7 |
| 20260901183130 | 63 | 151 | 0.0 | 2.0 | 0.00 | 0.00 | 0.00 | 81 | 1008.6 |
| 20260901182342 | 63 | 137 | 0.0 | 1.0 | 0.00 | 0.00 | 0.00 | 81 | 1008.8 |
| 20260901181846 | 62 | 150 | 0.0 | 1.0 | 0.00 | 0.00 | 0.00 | 82 | 1008.6 |
| 20260901181342 | 62 | 154 | 0.0 | 2.0 | 0.00 | 0.00 | 0.00 | 83 | 1008.6 |
| 20260901180840 | 62 | 143 | 1.0 | 10.0 | 0.00 | 0.00 | 0.00 | 83 | 1008.5 |
| 20260901180354 | 62 | 147 | 0.0 | 18.0 | 0.00 | 0.00 | 0.00 | 85 | 1008.4 |
| 20260901175839 | 61 | 133 | 2.0 | 18.0 | 0.00 | 0.00 | 0.00 | 85 | 1008.8 |
| 20260901175352 | 61 | 152 | 0.0 | 3.0 | 0.00 | 0.00 | 0.00 | 86 | 1008.8 |
| 20260901174853 | 61 | 150 | 0.0 | 3.0 | 0.00 | 0.00 | 0.00 | 86 | 1008.6 |
| 20260901174341 | 61 | 145 | 0.0 | 2.0 | 0.00 | 0.00 | 0.00 | 86 | 1008.6 |
| 20260901173840 | 61 | 132 | 0.0 | 10.0 | 0.00 | 0.00 | 0.00 | 86 | 1008.6 |
| 20260901173341 | 61 | 139 | 2.0 | 10.0 | 0.00 | 0.00 | 0.00 | 87 | 1008.2 |
| 20260901172841 | 60 | 146 | 0.0 | 11.0 | 0.00 | 0.00 | 0.00 | 87 | 1008.4 |
| 20260901172341 | 60 | 149 | 1.0 | 13.0 | 0.00 | 0.00 | 0.00 | 88 | 1008.5 |
| 20260901171840 | 60 | 141 | 1.0 | 13.0 | 0.00 | 0.00 | 0.00 | 87 | 1008.4 |
| 20260901171341 | 60 | 150 | 2.0 | 4.0 | 0.00 | 0.00 | 0.00 | 87 | 1008.6 |
| 20260901170852 | 60 | 145 | 0.0 | 4.0 | 0.00 | 0.00 | 0.00 | 88 | 1008.5 |
| 20260901170341 | 60 | 144 | 0.0 | 4.0 | 0.00 | 0.00 | 0.00 | 88 | 1008.3 |
| 20260901165839 | 60 | 140 | 0.0 | 10.0 | 0.00 | 0.00 | 0.00 | 88 | 1008.5 |
| 20260901165340 | 60 | 131 | 1.0 | 10.0 | 0.00 | 0.00 | 0.00 | 89 | 1008.4 |
| 20260901164841 | 60 | 131 | 0.0 | 6.0 | 0.00 | 0.00 | 0.00 | 89 | 1008.2 |
| 20260901164337 | 60 | 145 | 0.0 | 7.0 | 0.00 | 0.00 | 0.00 | 89 | 1008.4 |
| 20260901163836 | 60 | 154 | 0.0 | 10.0 | 0.00 | 0.00 | 0.00 | 89 | 1008.4 |
| 20260901163337 | 60 | 147 | 0.0 | 10.0 | 0.00 | 0.00 | 0.00 | 89 | 1008.5 |
| 20260901163117 | 59 | 134 | 1.0 | 9.0 | 0.00 | 0.00 | 0.00 | 89 | 1008.4 |
| 20260901162336 | 59 | 148 | 1.0 | 7.0 | 0.00 | 0.00 | 0.00 | 89 | 1008.3 |
| 20260901161836 | 59 | 126 | 1.0 | 32.0 | 0.00 | 0.00 | 0.00 | 90 | 1008.6 |
| 20260901161337 | 59 | 151 | 1.0 | 32.0 | 0.00 | 0.00 | 0.00 | 90 | 1008.5 |
| 20260901160836 | 59 | 150 | 1.0 | 14.0 | 0.00 | 0.00 | 0.00 | 90 | 1008.5 |
| 20260901160337 | 59 | 154 | 1.0 | 11.0 | 0.00 | 0.00 | 0.00 | 90 | 1008.6 |
| 20260901155837 | 59 | 149 | 1.0 | 7.0 | 0.00 | 0.00 | 0.00 | 90 | 1008.5 |
| 20260901155427 | 58 | 134 | 0.0 | 0.0 | 0.00 | 0.00 | 0.00 | 91 | 1008.6 |
| 20260901155406 | 59 | 123 | 0.0 | 7.0 | 0.00 | 0.00 | 0.00 | 90 | 1008.5 |
| 20260901154337 | 58 | 125 | 0.0 | 6.0 | 0.00 | 0.00 | 0.00 | 92 | 1008.7 |
| 20260901153836 | 58 | 143 | 0.0 | 7.0 | 0.00 | 0.00 | 0.00 | 92 | 1008.4 |
| 20260901153642 | 58 | 133 | 1.0 | 7.0 | 0.00 | 0.00 | 0.00 | 93 | 1008.8 |
| 20260901152836 | 58 | 143 | 1.0 | 7.0 | 0.00 | 0.00 | 0.00 | 93 | 1008.7 |
| 20260901152337 | 58 | 137 | 0.0 | 7.0 | 0.00 | 0.00 | 0.00 | 94 | 1008.8 |
| 20260901151838 | 57 | 145 | 0.0 | 9.0 | 0.00 | 0.00 | 0.00 | 94 | 1008.6 |
| 20260901151338 | 57 | 112 | 0.0 | 9.0 | 0.00 | 0.00 | 0.00 | 95 | 1008.8 |
| 20260901150836 | 57 | 149 | 0.0 | 15.0 | 0.00 | 0.00 | 0.00 | 95 | 1008.8 |
| 20260901150632 | 56 | 150 | 1.0 | 15.0 | 0.00 | 0.00 | 0.00 | 95 | 1008.6 |
| 20260901145839 | 56 | 154 | 0.0 | 0.0 | 0.00 | 0.00 | 0.00 | 96 | 1008.7 |
| 20260901145627 | 56 | 138 | 0.0 | 0.0 | 0.00 | 0.00 | 0.00 | 96 | 1008.6 |
| 20260901144839 | 55 | 128 | 0.0 | 0.0 | 0.00 | 0.00 | 0.00 | 96 | 1008.4 |
| 20260901144338 | 54 | 127 | 0.0 | 0.0 | 0.00 | 0.00 | 0.00 | 96 | 1008.5 |
| 20260901144127 | 54 | 125 | 0.0 | 2.0 | 0.00 | 0.00 | 0.00 | 96 | 1008.3 |
| 20260901143643 | 54 | 125 | 0.0 | 2.0 | 0.00 | 0.00 | 0.00 | 96 | 1008.4 |
| 20260901142839 | 54 | 127 | 0.0 | 6.0 | 0.00 | 0.00 | 0.00 | 97 | 1008.4 |
| 20260901142337 | 53 | 127 | 1.0 | 4.0 | 0.00 | 0.00 | 0.00 | 97 | 1008.4 |
| 20260901141837 | 53 | 127 | 0.0 | 0.0 | 0.00 | 0.00 | 0.00 | 97 | 1008.4 |
| 20260901141337 | 53 | 127 | 0.0 | 0.0 | 0.00 | 0.00 | 0.00 | 97 | 1008.3 |
| 20260901140838 | 53 | 126 | 0.0 | 0.0 | 0.00 | 0.00 | 0.00 | 97 | 1008.3 |
| 20260901140338 | 53 | 126 | 0.0 | 4.0 | 0.00 | 0.00 | 0.00 | 97 | 1008.2 |
| 20260901135838 | 53 | 125 | 0.0 | 4.0 | 0.00 | 0.00 | 0.00 | 97 | 1008.1 |
| 20260901135337 | 53 | 122 | 0.0 | 0.0 | 0.00 | 0.00 | 0.00 | 97 | 1008.1 |
| 20260901134837 | 53 | 146 | 0.0 | 0.0 | 0.00 | 0.00 | 0.00 | 97 | 1008.1 |
| 20260901134339 | 53 | 146 | 0.0 | 0.0 | 0.00 | 0.00 | 0.00 | 97 | 1008.0 |
| 20260901134119 | 53 | 146 | 0.0 | 0.0 | 0.00 | 0.00 | 0.00 | 97 | 1007.9 |
| 20260901133337 | 53 | 146 | 0.0 | 0.0 | 0.00 | 0.00 | 0.00 | 97 | 1008.0 |
| 20260901132836 | 53 | 145 | 0.0 | 0.0 | 0.00 | 0.00 | 0.00 | 97 | 1007.9 |
| 20260901132337 | 53 | 145 | 0.0 | 0.0 | 0.00 | 0.00 | 0.00 | 97 | 1007.9 |
| 20260901131836 | 53 | 145 | 0.0 | 0.0 | 0.00 | 0.00 | 0.00 | 97 | 1008.1 |
| 20260901131338 | 53 | 146 | 0.0 | 0.0 | 0.00 | 0.00 | 0.00 | 97 | 1007.9 |
| 20260901130836 | 53 | 146 | 0.0 | 0.0 | 0.00 | 0.00 | 0.00 | 97 | 1007.9 |
| 20260901130342 | 52 | 146 | 0.0 | 0.0 | 0.00 | 0.00 | 0.00 | 97 | 1007.9 |
| 20260901125842 | 52 | 145 | 0.0 | 0.0 | 0.00 | 0.00 | 0.00 | 97 | 1008.0 |
| 20260901125340 | 52 | 145 | 0.0 | 0.0 | 0.00 | 0.00 | 0.00 | 97 | 1007.7 |
| 20260901124836 | 52 | 145 | 0.0 | 0.0 | 0.00 | 0.00 | 0.00 | 97 | 1007.8 |
| 20260901124337 | 52 | 145 | 0.0 | 6.0 | 0.00 | 0.00 | 0.00 | 97 | 1007.7 |
| 20260901124140 | 52 | 145 | 1.0 | 4.0 | 0.00 | 0.00 | 0.00 | 97 | 1007.7 |
| 20260901123337 | 52 | 145 | 0.0 | 0.0 | 0.00 | 0.00 | 0.00 | 97 | 1007.7 |
| 20260901122840 | 52 | 145 | 0.0 | 0.0 | 0.00 | 0.00 | 0.00 | 97 | 1007.6 |
| 20260901122339 | 52 | 146 | 0.0 | 0.0 | 0.00 | 0.00 | 0.00 | 97 | 1007.7 |
| 20260901121837 | 52 | 145 | 0.0 | 1.0 | 0.00 | 0.00 | 0.00 | 97 | 1007.4 |
| 20260901121339 | 53 | 145 | 0.0 | 1.0 | 0.00 | 0.00 | 0.00 | 96 | 1007.5 |
| 20260901120837 | 53 | 146 | 0.0 | 0.0 | 0.00 | 0.00 | 0.00 | 97 | 1007.3 |
| 20260901120337 | 52 | 146 | 0.0 | 0.0 | 0.00 | 0.00 | 0.00 | 97 | 1007.5 |
| 20260901115845 | 53 | 146 | 0.0 | 0.0 | 0.00 | 0.00 | 0.00 | 97 | 1007.5 |
| 20260901115338 | 53 | 146 | 0.0 | 0.0 | 0.00 | 0.00 | 0.00 | 97 | 1007.6 |
| 20260901114837 | 52 | 146 | 0.0 | 0.0 | 0.00 | 0.00 | 0.00 | 97 | 1007.6 |
| 20260901114337 | 52 | 146 | 0.0 | 0.0 | 0.00 | 0.00 | 0.00 | 97 | 1007.4 |
| 20260901113836 | 52 | 146 | 0.0 | 0.0 | 0.00 | 0.00 | 0.00 | 96 | 1007.4 |
| 20260901113337 | 52 | 146 | 0.0 | 0.0 | 0.00 | 0.00 | 0.00 | 96 | 1007.7 |
| 20260901112836 | 52 | 145 | 0.0 | 0.0 | 0.00 | 0.00 | 0.00 | 96 | 1007.6 |
| 20260901112337 | 52 | 145 | 0.0 | 0.0 | 0.00 | 0.00 | 0.00 | 96 | 1007.5 |
| 20260901111836 | 52 | 145 | 0.0 | 0.0 | 0.00 | 0.00 | 0.00 | 96 | 1007.3 |
| 20260901111337 | 53 | 145 | 0.0 | 0.0 | 0.00 | 0.00 | 0.00 | 96 | 1007.5 |
| 20260901110836 | 53 | 145 | 0.0 | 0.0 | 0.00 | 0.00 | 0.00 | 96 | 1007.5 |
| 20260901110337 | 53 | 146 | 0.0 | 0.0 | 0.00 | 0.00 | 0.00 | 96 | 1007.5 |
| 20260901110209 | 53 | 146 | 0.0 | 0.0 | 0.00 | 0.00 | 0.00 | 96 | 1007.5 |
| 20260901105337 | 53 | 146 | 0.0 | 0.0 | 0.00 | 0.00 | 0.00 | 96 | 1007.4 |
| 20260901104836 | 53 | 146 | 0.0 | 0.0 | 0.00 | 0.00 | 0.00 | 96 | 1007.4 |
| 20260901104337 | 53 | 146 | 0.0 | 0.0 | 0.00 | 0.00 | 0.00 | 95 | 1007.5 |
| 20260901103836 | 53 | 146 | 0.0 | 0.0 | 0.00 | 0.00 | 0.00 | 95 | 1007.3 |
| 20260901103350 | 53 | 146 | 0.0 | 0.0 | 0.00 | 0.00 | 0.00 | 95 | 1007.7 |
| 20260901102836 | 53 | 146 | 0.0 | 0.0 | 0.00 | 0.00 | 0.00 | 95 | 1007.6 |
| 20260901102337 | 53 | 146 | 0.0 | 0.0 | 0.00 | 0.00 | 0.00 | 95 | 1007.8 |
| 20260901101836 | 53 | 145 | 0.0 | 0.0 | 0.00 | 0.00 | 0.00 | 95 | 1007.7 |
| 20260901101338 | 53 | 145 | 0.0 | 0.0 | 0.00 | 0.00 | 0.00 | 95 | 1007.3 |
| 20260901100851 | 53 | 145 | 0.0 | 0.0 | 0.00 | 0.00 | 0.00 | 95 | 1007.5 |
| 20260901100338 | 53 | 146 | 0.0 | 0.0 | 0.00 | 0.00 | 0.00 | 94 | 1007.6 |
| 20260901095836 | 54 | 145 | 0.0 | 0.0 | 0.00 | 0.00 | 0.00 | 94 | 1007.3 |
| 20260901095337 | 54 | 145 | 0.0 | 0.0 | 0.00 | 0.00 | 0.00 | 94 | 1007.4 |
| 20260901094836 | 54 | 145 | 0.0 | 0.0 | 0.00 | 0.00 | 0.00 | 94 | 1007.6 |
| 20260901094337 | 54 | 145 | 0.0 | 0.0 | 0.00 | 0.00 | 0.00 | 94 | 1007.2 |
| 20260901093836 | 54 | 145 | 0.0 | 0.0 | 0.00 | 0.00 | 0.00 | 94 | 1007.4 |
| 20260901093350 | 54 | 145 | 0.0 | 0.0 | 0.00 | 0.00 | 0.00 | 94 | 1007.4 |
| 20260901092836 | 54 | 146 | 0.0 | 0.0 | 0.00 | 0.00 | 0.00 | 94 | 1007.5 |
| 20260901092337 | 54 | 146 | 0.0 | 0.0 | 0.00 | 0.00 | 0.00 | 94 | 1007.5 |
| 20260901091836 | 54 | 146 | 0.0 | 0.0 | 0.00 | 0.00 | 0.00 | 93 | 1007.5 |
| 20260901091337 | 54 | 146 | 0.0 | 0.0 | 0.00 | 0.00 | 0.00 | 93 | 1007.4 |
| 20260901090836 | 54 | 146 | 0.0 | 0.0 | 0.00 | 0.00 | 0.00 | 93 | 1007.4 |
| 20260901090337 | 54 | 146 | 0.0 | 0.0 | 0.00 | 0.00 | 0.00 | 93 | 1007.3 |
| 20260901085835 | 55 | 146 | 0.0 | 0.0 | 0.00 | 0.00 | 0.00 | 93 | 1007.4 |
| 20260901085337 | 55 | 146 | 0.0 | 0.0 | 0.00 | 0.00 | 0.00 | 93 | 1007.4 |
| 20260901084836 | 55 | 146 | 0.0 | 0.0 | 0.00 | 0.00 | 0.00 | 92 | 1007.4 |
| 20260901084337 | 55 | 146 | 0.0 | 0.0 | 0.00 | 0.00 | 0.00 | 92 | 1007.3 |
| 20260901083836 | 55 | 146 | 0.0 | 0.0 | 0.00 | 0.00 | 0.00 | 92 | 1007.3 |
| 20260901083337 | 55 | 146 | 0.0 | 0.0 | 0.00 | 0.00 | 0.00 | 92 | 1007.4 |
| 20260901083128 | 55 | 146 | 0.0 | 0.0 | 0.00 | 0.00 | 0.00 | 92 | 1007.1 |
| 20260901082337 | 55 | 145 | 0.0 | 0.0 | 0.00 | 0.00 | 0.00 | 92 | 1007.3 |
| 20260901081836 | 55 | 146 | 0.0 | 0.0 | 0.00 | 0.00 | 0.00 | 91 | 1007.2 |
| 20260901081337 | 56 | 146 | 0.0 | 0.0 | 0.00 | 0.00 | 0.00 | 91 | 1007.3 |
| 20260901080836 | 55 | 146 | 0.0 | 0.0 | 0.00 | 0.00 | 0.00 | 91 | 1007.3 |
| 20260901080337 | 56 | 146 | 0.0 | 0.0 | 0.00 | 0.00 | 0.00 | 91 | 1007.4 |
| 20260901075836 | 56 | 146 | 0.0 | 0.0 | 0.00 | 0.00 | 0.00 | 90 | 1007.5 |
| 20260901075337 | 56 | 146 | 0.0 | 0.0 | 0.00 | 0.00 | 0.00 | 90 | 1007.4 |
| 20260901074841 | 56 | 146 | 0.0 | 0.0 | 0.00 | 0.00 | 0.00 | 90 | 1007.2 |
| 20260901074341 | 56 | 146 | 0.0 | 0.0 | 0.00 | 0.00 | 0.00 | 89 | 1007.3 |
| 20260901073839 | 56 | 146 | 0.0 | 0.0 | 0.00 | 0.00 | 0.00 | 89 | 1007.1 |
| 20260901073418 | 56 | 146 | 0.0 | 0.0 | 0.00 | 0.00 | 0.00 | 89 | 1007.1 |
| 20260901072618 | 56 | 146 | 0.0 | 0.0 | 0.00 | 0.00 | 0.00 | 89 | 1007.0 |
| 20260901071838 | 56 | 146 | 0.0 | 0.0 | 0.00 | 0.00 | 0.00 | 89 | 1007.1 |
| 20260901071338 | 56 | 146 | 0.0 | 0.0 | 0.00 | 0.00 | 0.00 | 89 | 1007.3 |
| 20260901070835 | 56 | 146 | 0.0 | 0.0 | 0.00 | 0.00 | 0.00 | 88 | 1007.2 |
| 20260901070337 | 56 | 146 | 0.0 | 0.0 | 0.00 | 0.00 | 0.00 | 88 | 1007.1 |
| 20260901065837 | 56 | 146 | 0.0 | 0.0 | 0.00 | 0.00 | 0.00 | 89 | 1007.2 |
| 20260901065339 | 57 | 146 | 0.0 | 0.0 | 0.00 | 0.00 | 0.00 | 89 | 1007.2 |
| 20260901064836 | 57 | 146 | 0.0 | 0.0 | 0.00 | 0.00 | 0.00 | 88 | 1007.4 |
| 20260901064340 | 57 | 146 | 0.0 | 0.0 | 0.00 | 0.00 | 0.00 | 88 | 1007.3 |
| 20260901063839 | 57 | 146 | 0.0 | 0.0 | 0.00 | 0.00 | 0.00 | 87 | 1007.0 |
| 20260901063337 | 57 | 146 | 0.0 | 0.0 | 0.00 | 0.00 | 0.00 | 88 | 1007.1 |
| 20260901062836 | 57 | 146 | 0.0 | 0.0 | 0.00 | 0.00 | 0.00 | 88 | 1007.3 |
| 20260901062342 | 58 | 146 | 0.0 | 0.0 | 0.00 | 0.00 | 0.00 | 88 | 1007.2 |
| 20260901061836 | 58 | 146 | 0.0 | 0.0 | 0.00 | 0.00 | 0.00 | 86 | 1007.2 |
| 20260901061337 | 58 | 146 | 0.0 | 0.0 | 0.00 | 0.00 | 0.00 | 86 | 1007.4 |
| 20260901060836 | 58 | 146 | 0.0 | 0.0 | 0.00 | 0.00 | 0.00 | 85 | 1007.3 |
| 20260901060337 | 58 | 146 | 0.0 | 0.0 | 0.00 | 0.00 | 0.00 | 86 | 1007.4 |
| 20260901060138 | 58 | 146 | 0.0 | 0.0 | 0.00 | 0.00 | 0.00 | 86 | 1007.6 |
| 20260901055337 | 59 | 146 | 0.0 | 0.0 | 0.00 | 0.00 | 0.00 | 86 | 1007.3 |
| 20260901054836 | 58 | 146 | 0.0 | 0.0 | 0.00 | 0.00 | 0.00 | 84 | 1007.4 |
| 20260901054350 | 59 | 146 | 0.0 | 0.0 | 0.00 | 0.00 | 0.00 | 85 | 1007.5 |
| 20260901053836 | 59 | 146 | 0.0 | 0.0 | 0.00 | 0.00 | 0.00 | 85 | 1007.3 |
| 20260901053337 | 59 | 146 | 0.0 | 0.0 | 0.00 | 0.00 | 0.00 | 84 | 1007.5 |
| 20260901052837 | 59 | 147 | 0.0 | 0.0 | 0.00 | 0.00 | 0.00 | 84 | 1007.5 |
| 20260901052337 | 59 | 147 | 0.0 | 0.0 | 0.00 | 0.00 | 0.00 | 85 | 1007.5 |
| 20260901051837 | 59 | 147 | 0.0 | 0.0 | 0.00 | 0.00 | 0.00 | 85 | 1007.6 |
| 20260901051337 | 59 | 147 | 0.0 | 0.0 | 0.00 | 0.00 | 0.00 | 84 | 1007.6 |
| 20260901050836 | 60 | 147 | 0.0 | 0.0 | 0.00 | 0.00 | 0.00 | 85 | 1007.5 |
| 20260901050623 | 60 | 147 | 0.0 | 0.0 | 0.00 | 0.00 | 0.00 | 83 | 1007.7 |
| 20260901050152 | 60 | 147 | 0.0 | 0.0 | 0.00 | 0.00 | 0.00 | 84 | 1007.8 |
| 20260901045337 | 60 | 147 | 0.0 | 0.0 | 0.00 | 0.00 | 0.00 | 84 | 1007.3 |
| 20260901044836 | 60 | 147 | 0.0 | 0.0 | 0.00 | 0.00 | 0.00 | 83 | 1007.7 |
| 20260901044337 | 60 | 147 | 0.0 | 0.0 | 0.00 | 0.00 | 0.00 | 83 | 1007.5 |
| 20260901043839 | 60 | 147 | 0.0 | 0.0 | 0.00 | 0.00 | 0.00 | 84 | 1007.4 |
| 20260901043338 | 60 | 147 | 0.0 | 0.0 | 0.00 | 0.00 | 0.00 | 83 | 1007.7 |
| 20260901042837 | 60 | 147 | 0.0 | 0.0 | 0.00 | 0.00 | 0.00 | 82 | 1007.5 |
| 20260901042337 | 60 | 147 | 0.0 | 0.0 | 0.00 | 0.00 | 0.00 | 82 | 1007.9 |
| 20260901041835 | 60 | 147 | 0.0 | 0.0 | 0.00 | 0.00 | 0.00 | 82 | 1007.8 |
| 20260901041643 | 60 | 147 | 0.0 | 0.0 | 0.00 | 0.00 | 0.00 | 81 | 1007.5 |
| 20260901040835 | 60 | 147 | 0.0 | 0.0 | 0.00 | 0.00 | 0.00 | 81 | 1007.4 |
| 20260901040337 | 61 | 147 | 0.0 | 0.0 | 0.00 | 0.00 | 0.00 | 81 | 1007.3 |
| 20260901035837 | 61 | 147 | 0.0 | 0.0 | 0.00 | 0.00 | 0.00 | 81 | 1007.6 |
| 20260901035336 | 61 | 147 | 0.0 | 0.0 | 0.00 | 0.00 | 0.00 | 81 | 1007.7 |
| 20260901034836 | 61 | 147 | 0.0 | 0.0 | 0.00 | 0.00 | 0.00 | 82 | 1007.5 |
| 20260901034337 | 62 | 147 | 0.0 | 0.0 | 0.00 | 0.00 | 0.00 | 80 | 1007.2 |
| 20260901033837 | 62 | 147 | 0.0 | 0.0 | 0.00 | 0.00 | 0.00 | 79 | 1007.3 |
| 20260901033336 | 62 | 147 | 0.0 | 0.0 | 0.00 | 0.00 | 0.00 | 80 | 1007.3 |
| 20260901033127 | 62 | 147 | 0.0 | 0.0 | 0.00 | 0.00 | 0.00 | 81 | 1007.2 |
| 20260901032639 | 62 | 147 | 0.0 | 0.0 | 0.00 | 0.00 | 0.00 | 79 | 1007.0 |
| 20260901032121 | 62 | 147 | 0.0 | 0.0 | 0.00 | 0.00 | 0.00 | 79 | 1007.1 |
| 20260901031336 | 62 | 147 | 0.0 | 0.0 | 0.00 | 0.00 | 0.00 | 79 | 1007.0 |
| 20260901030836 | 63 | 147 | 0.0 | 0.0 | 0.00 | 0.00 | 0.00 | 80 | 1006.9 |
| 20260901030336 | 63 | 147 | 0.0 | 0.0 | 0.00 | 0.00 | 0.00 | 79 | 1006.9 |